Flag for U.S.A. Weather past 2 weeks in Annapolis, Maryland, U.S.A.

Now
75 °F

Passing clouds.


Feels Like: 74 °F
Forecast: 74 / 86 °F
Wind: No wind

Location: Annapolis - United States Naval Academy

Current Time: Jul 28, 2015 at 4:23:51 AM

Latest Report: Jul 28, 2015 at 3:54 AM


Visibility: 9 mi

Pressure: 30.00 "Hg

Humidity: 88%

Dew point: 71 °F

Location of AnnapolisLocation

Historic Weather in Annapolis — Graph

°F

Annapolis temperature yesterday

Maximum temperature yesterday: 82 °F (at 4:54 PM)
Minimum temperature yesterday: 73 °F (at 4:54 AM)
Average temperature yesterday: 78 °F

Past Weeks' High & Low Weather Summary

 TemperatureHumidityPressure
High92 °F (Jul 20, 4:54 PM)90% (Jul 14, 12:00 AM)30.10 "Hg (Jul 14, 12:00 AM)
Low67 °F (Jul 24, 3:54 AM)35% (Jul 22, 4:54 PM)29.53 "Hg (Jul 15, 1:54 AM)
Average78 °F68%29.88 "Hg
* Reported Jul 13 2:54 AM — Jul 28 2:54 AM, Annapolis, Weather by CustomWeather, © 2015

Note: Actual official high and low records may vary slightly from our data, if they occured in-between our weather recording intervals... More about our weather records

Advertising

Annapolis weather history for previous 24 hours

 ConditionsComfort  
Time TempWeatherWind HumidityBarometerVisibility
2:54 AM
Tue, Jul 28
76 °FPassing clouds.No wind85%30.01 "Hg10 mi
1:54 AM76 °FClear.3 mph82%30.01 "Hg10 mi
12:54 AM78 °FClear.No wind79%30.01 "Hg10 mi
11:54 PM
Mon, Jul 27
78 °FClear.No wind79%30.00 "Hg10 mi
10:54 PM79 °FPartly cloudy.6 mph79%30.00 "Hg10 mi
9:54 PM80 °FPassing clouds.5 mph79%30.00 "Hg10 mi
8:54 PM79 °FSunny.9 mph79%29.98 "Hg10 mi
7:54 PM80 °FSunny.10 mph79%29.97 "Hg10 mi
6:54 PM82 °FScattered clouds.9 mph74%29.96 "Hg10 mi
5:54 PM82 °FPartly sunny.7 mph72%29.96 "Hg10 mi
4:54 PM82 °FScattered clouds.6 mph74%29.97 "Hg10 mi
3:54 PM80 °FPartly sunny.9 mph79%29.97 "Hg8 mi
2:54 PM79 °FMostly cloudy.14 mph82%29.98 "Hg8 mi
2:02 PM80 °FMostly cloudy.10 mph76%29.99 "Hg10 mi
12:54 PM80 °FCloudy.10 mph76%30.00 "Hg10 mi
11:54 AM80 °FPartly sunny.7 mph74%30.01 "Hg10 mi
10:54 AM79 °FPartly sunny.9 mph77%30.01 "Hg10 mi
9:54 AM78 °FMostly cloudy.8 mph79%30.01 "Hg10 mi
8:54 AM76 °FPartly sunny.8 mph85%30.00 "Hg10 mi
7:54 AM74 °FPassing clouds.9 mph88%29.99 "Hg9 mi
6:54 AM74 °FPassing clouds.9 mph88%29.98 "Hg9 mi
5:54 AM74 °FLight rain. Passing clouds.10 mph85%29.97 "Hg10 mi
4:54 AM73 °FOvercast.8 mph88%29.98 "Hg8 mi
Weather by CustomWeather, © 2015

See weather overviewHow to use our weather pages